Tracking 29892 objects as of 21-Nov-2024
HD Live streaming from Space Station
objects crossing your sky now

OBJECT B

Track OBJECT B now!
10-day predictions


NORAD ID: 53885
Int'l Code: 2022-118B
Perigee: 269.0 km
Apogee: 276.4 km
Inclination: 97.4 °
Period: 89.8 minutes
Semi major axis: 6643 km
RCS: Unknown
Launch date: September 24, 2022
Source: People's Republic of China (PRC)
Launch site: Taiyaun Space Center, China (TSC)
Your satellite tracking list
Your tracking list is empty




NASA's NSSDC Master Catalog

Two Line Element Set (TLE):
1 53885U 22118B   24326.13071356  .01173574  75567-3  19464-2 0  9993
2 53885  97.4477 355.8180 0005554 119.5255 240.6579 16.03187433120884
Source of the keplerian elements: AFSPC